#timestamp,LO_Frequency,Hit,StdDev 
1583726635.3,286046998.0,P
1583726655.1,286046994.9,P
1583726675.8,286046995.1,P
1583726695.7,286046998.0,N
1583726715.5,286046997.1,N
1583726735.4,286046997.1,N
1583726755.2,286046999.2,N
1583726775.0,286046997.6,N
1583726775.9,286046997.6,N
1583726795.8,286046997.5,N
1583726815.6,286046997.0,N
1583726835.4,286046996.6,N
1583726855.3,286046997.2,N
1583726875.1,286046995.0,Y
1583726895.9,286047000.9,P
1583726915.7,286046998.3,N
1583726935.5,286046999.5,N
1583726955.4,286046999.6,N
1583726975.2,286046999.3,N
1583726995.1,286046998.9,N
1583726996.0,286046998.9,N
1583727015.8,286046998.8,N
1583727035.6,286047000.7,N
1583727055.5,286046998.2,N
1583727075.3,286046999.8,N
1583727095.2,286046999.9,N
1583727115.9,286047000.3,N
1583727135.7,286047000.5,N
1583727155.6,286047000.4,N
1583727175.4,286046998.1,N
1583727195.2,286046997.0,N
1583727215.1,286046995.3,Y
1583727216.0,286046995.3,P
1583727235.8,286046996.6,N
1583727255.7,286046999.6,N
1583727275.5,286046999.2,N
1583727295.3,286046999.5,N
1583727315.2,286047001.2,N
1583727335.0,286047000.2,N
1583727335.9,286047000.2,N
1583727355.8,286047001.0,N
1583727375.6,286047002.6,N
1583727395.4,286047002.8,N
1583727415.3,286046999.8,N
1583727435.1,286046999.8,N
1583727455.8,286047000.6,N
1583727475.7,286046999.0,N
1583727495.5,286046997.3,N
1583727515.4,286046996.6,N
1583727535.2,286046996.8,N
1583727555.0,286046996.8,N
1583727555.9,286046996.8,N
1583727575.8,286046996.7,N
1583727595.6,286046997.3,N
1583727615.4,286046996.9,N
1583727635.3,286046997.0,N
1583727655.1,286046999.4,N
1583727675.9,286046998.3,N
1583727695.7,286046998.1,N
1583727715.5,286046998.4,N
1583727735.4,286046997.1,N
1583727755.2,286046999.0,N
1583727775.0,286046998.6,N
1583727775.9,286046998.6,N
1583727795.8,286046998.4,N
1583727815.6,286046998.6,N
1583727835.5,286047000.0,N
1583727855.3,286047000.7,N
1583727875.1,286046998.1,N
1583727895.9,286046999.9,N
1583727915.7,286047001.7,N
1583727935.6,286047002.3,N
1583727955.4,286046999.7,N
1583727975.2,286047001.5,N
1583727995.1,286047001.7,N
1583727996.0,286047001.7,N
1583728015.8,286047002.4,N
1583728035.6,286047002.3,N
1583728055.5,286047000.2,N
1583728075.3,286047001.6,N
1583728095.2,286047001.5,N
1583728115.9,286047000.4,N
1583728135.7,286047000.7,N
1583728155.6,286046999.9,N
1583728175.4,286047000.9,N
1583728195.3,286047000.8,N
1583728215.1,286046998.2,N
1583728216.0,286046998.2,N
1583728235.8,286046998.9,N
1583728255.7,286046998.1,N
1583728275.5,286046998.1,N
1583728295.3,286047001.2,N
1583728315.2,286047001.1,N
1583728335.0,286046998.8,N
1583728335.9,286046998.8,N
1583728355.8,286046998.8,N
1583728375.6,286046999.1,N
1583728395.4,286047001.1,N
1583728415.3,286047001.0,N
1583728435.1,286046999.0,N
1583728455.8,286046999.2,N
1583728475.7,286046999.4,N
1583728495.5,286046998.9,N
1583728515.4,286046998.6,N
1583728535.2,286047000.6,N
1583728555.0,286047000.4,N
1583728555.9,286047000.4,N
1583728575.8,286046999.8,N
1583728595.6,286047000.4,N
1583728615.5,286046999.7,N
1583728635.3,286047002.8,N
1583728655.1,286046999.7,N
1583728675.9,286047000.1,N
1583728695.7,286047002.2,N
1583728715.5,286047000.3,N
1583728735.4,286046998.4,N
1583728755.2,286046999.6,N
1583728775.1,286046998.3,N
1583728776.0,286046998.3,N
1583728795.8,286046998.6,N
1583728815.6,286046999.2,N
1583728835.5,286046998.4,N
1583728855.3,286047000.9,N
1583728875.1,286047001.2,N
1583728895.9,286047000.8,N
1583728915.7,286047000.1,N
1583728935.6,286047000.1,N
1583728955.4,286047002.5,N
1583728975.2,286047004.0,Y
1583728995.1,286047001.3,P
1583728996.0,286047001.3,N
1583729015.8,286047001.5,N
1583729035.7,286047003.2,Y
1583729055.5,286047002.6,P
1583729075.3,286047002.3,N
1583729095.2,286047002.3,P
1583729145.0,286047001.1,E
1583729155.9,286046998.8,N
1583729175.7,286046997.1,P
1583729195.5,286046999.4,N
1583729215.4,286046999.0,N
1583729235.2,286046998.6,N
1583729255.1,286046998.1,N
1583729256.0,286046998.1,N
1583729275.8,286047000.6,N
1583729295.6,286047002.7,N
1583729315.5,286047001.0,N
1583729335.3,286047001.1,N
1583729355.1,286047000.8,N
1583729375.9,286047000.5,N
1583729395.7,286047000.2,N
1583729415.6,286047001.1,N
1583729435.4,286047001.1,N
1583729455.2,286046998.6,N
1583729475.1,286046998.4,N
1583729476.0,286046998.4,N
1583729495.8,286047001.1,N
1583729515.7,286046998.2,N
1583729535.5,286047000.7,N
1583729555.3,286046998.3,N
1583729575.2,286047000.6,N
1583729595.0,286047000.5,N
1583729595.9,286047000.5,N
1583729615.7,286047000.9,N
1583729635.6,286047000.0,N
1583729655.4,286046999.7,N
1583729675.3,286047001.5,N
1583729695.1,286047004.4,Y
1583729715.8,286047002.4,P
1583729735.7,286047000.8,N
1583729755.5,286047001.2,N
1583729775.4,286047000.9,N
1583729795.2,286047001.0,N
1583729815.0,286047002.8,Y
1583729815.9,286047002.8,P
1583729835.8,286047001.2,N
1583729855.6,286046998.2,N
1583729875.5,286047000.1,N
1583729895.3,286046999.9,N
1583729915.1,286046998.3,N
1583729935.9,286046998.3,N
1583729955.7,286046999.3,N
1583729975.5,286046998.2,N
1583729995.4,286046998.3,N
